TimePDT,TemperatureF,Dew PointF,Humidity,Sea Level PressureIn,VisibilityMPH,Wind Direction,Wind SpeedMPH,Gust SpeedMPH,PrecipitationIn,Events,Conditions,WindDirDegrees,DateUTC
12:15 AM,60.8,60.8,100,30.10,10.0,North,9.2,-,N/A,,Overcast,350,2013-08-19 07:15:00
12:35 AM,60.8,60.8,100,30.09,10.0,North,10.4,-,N/A,,Overcast,360,2013-08-19 07:35:00
12:55 AM,60.8,60.8,100,30.10,10.0,North,8.1,-,N/A,,Overcast,10,2013-08-19 07:55:00
1:15 AM,60.8,60.8,100,30.09,10.0,North,5.8,-,N/A,,Overcast,10,2013-08-19 08:15:00
1:35 AM,-9999,-9999,N/A,30.08,10.0,North,3.5,-,N/A,,Overcast,360,2013-08-19 08:35:00
1:55 AM,-9999,-9999,N/A,30.09,3.0,NW,3.5,-,N/A,,Overcast,320,2013-08-19 08:55:00
2:15 AM,-9999,-9999,N/A,30.08,1.0,NNW,3.5,-,N/A,,Overcast,330,2013-08-19 09:15:00
2:35 AM,-9999,-9999,N/A,30.08,3.0,North,4.6,-,N/A,,Overcast,350,2013-08-19 09:35:00
2:55 AM,-9999,-9999,N/A,30.08,1.8,NNE,5.8,-,N/A,,Overcast,20,2013-08-19 09:55:00
3:15 AM,57.2,57.2,100,30.08,1.0,North,3.5,-,N/A,,Overcast,360,2013-08-19 10:15:00
3:35 AM,57.2,57.2,100,30.08,0.8,NNW,3.5,-,N/A,,Overcast,340,2013-08-19 10:35:00
3:55 AM,57.2,57.2,100,30.08,0.5,Calm,Calm,-,N/A,,Overcast,0,2013-08-19 10:55:00
4:15 AM,57.2,57.2,100,30.08,0.8,North,3.5,-,N/A,,Overcast,350,2013-08-19 11:15:00
4:35 AM,-9999,-9999,N/A,30.07,1.0,Calm,Calm,-,N/A,,Overcast,0,2013-08-19 11:35:00
4:55 AM,-9999,-9999,N/A,30.07,1.2,North,3.5,-,N/A,,Overcast,10,2013-08-19 11:55:00
5:15 AM,-9999,-9999,N/A,30.07,1.0,Calm,Calm,-,N/A,,Overcast,0,2013-08-19 12:15:00
5:35 AM,-9999,-9999,N/A,30.08,1.8,Calm,Calm,-,N/A,,Overcast,0,2013-08-19 12:35:00
5:55 AM,-9999,-9999,N/A,30.08,0.8,Calm,Calm,-,N/A,,Overcast,0,2013-08-19 12:55:00
6:15 AM,-9999,-9999,N/A,30.08,0.5,Calm,Calm,-,N/A,,Overcast,0,2013-08-19 13:15:00
6:35 AM,57.2,55.4,94,30.09,0.2,Calm,Calm,-,N/A,,Overcast,0,2013-08-19 13:35:00
6:55 AM,57.2,55.4,94,30.10,0.5,Calm,Calm,-,N/A,,Overcast,0,2013-08-19 13:55:00
7:15 AM,57.2,55.4,94,30.11,0.2,NW,3.5,-,N/A,,Overcast,320,2013-08-19 14:15:00
7:35 AM,55.4,55.4,100,30.11,0.2,Calm,Calm,-,N/A,,Overcast,0,2013-08-19 14:35:00
7:55 AM,57.2,57.2,100,30.11,0.5,North,3.5,-,N/A,,Overcast,360,2013-08-19 14:55:00
8:15 AM,57.2,57.2,100,30.11,3.0,NNE,4.6,-,N/A,,Overcast,20,2013-08-19 15:15:00
8:35 AM,60.8,59.0,94,30.12,4.0,NNE,4.6,-,N/A,,Scattered Clouds,20,2013-08-19 15:35:00
8:55 AM,62.6,-9999,N/A,30.12,10.0,North,5.8,-,N/A,,Partly Cloudy,350,2013-08-19 15:55:00
9:15 AM,62.6,-9999,N/A,30.12,10.0,NNW,11.5,-,N/A,,Mostly Cloudy,340,2013-08-19 16:15:00
9:35 AM,62.6,-9999,N/A,30.12,10.0,North,17.3,-,N/A,,Overcast,350,2013-08-19 16:35:00
9:55 AM,62.6,-9999,N/A,30.13,10.0,North,11.5,-,N/A,,Scattered Clouds,360,2013-08-19 16:55:00
10:35 AM,66.2,-9999,N/A,30.13,10.0,North,13.8,-,N/A,,Scattered Clouds,350,2013-08-19 17:35:00
10:55 AM,68.0,-9999,N/A,30.13,10.0,North,15.0,-,N/A,,Clear,350,2013-08-19 17:55:00
11:15 AM,69.8,-9999,N/A,30.13,10.0,North,15.0,-,N/A,,Clear,360,2013-08-19 18:15:00
11:35 AM,69.8,-9999,N/A,30.13,10.0,NNW,16.1,-,N/A,,Clear,340,2013-08-19 18:35:00
11:55 AM,69.8,-9999,N/A,30.12,10.0,North,16.1,-,N/A,,Clear,350,2013-08-19 18:55:00
12:15 PM,66.2,-9999,N/A,30.12,10.0,North,20.7,27.6,N/A,,Clear,360,2013-08-19 19:15:00
12:35 PM,69.8,-9999,N/A,30.12,10.0,North,19.6,26.5,N/A,,Clear,350,2013-08-19 19:35:00
12:55 PM,69.8,-9999,N/A,30.12,10.0,North,19.6,27.6,N/A,,Clear,350,2013-08-19 19:55:00
1:15 PM,68.0,-9999,N/A,30.12,10.0,North,20.7,28.8,N/A,,Clear,350,2013-08-19 20:15:00
1:35 PM,69.8,-9999,N/A,30.12,10.0,North,21.9,27.6,N/A,,Clear,350,2013-08-19 20:35:00
1:55 PM,69.8,-9999,N/A,30.11,10.0,North,21.9,28.8,N/A,,Clear,350,2013-08-19 20:55:00
2:15 PM,69.8,-9999,N/A,30.11,10.0,North,24.2,29.9,N/A,,Clear,350,2013-08-19 21:15:00
2:35 PM,69.8,-9999,N/A,30.11,10.0,North,23.0,32.2,N/A,,Clear,350,2013-08-19 21:35:00
2:55 PM,69.8,-9999,N/A,30.11,10.0,North,23.0,29.9,N/A,,Clear,350,2013-08-19 21:55:00
3:15 PM,69.8,-9999,N/A,30.11,10.0,North,24.2,31.1,N/A,,Clear,350,2013-08-19 22:15:00
3:35 PM,69.8,-9999,N/A,30.10,10.0,North,21.9,31.1,N/A,,Clear,350,2013-08-19 22:35:00
3:55 PM,68.0,-9999,N/A,30.10,10.0,North,21.9,32.2,N/A,,Clear,350,2013-08-19 22:55:00
4:15 PM,68.0,-9999,N/A,30.09,10.0,North,25.3,31.1,N/A,,Clear,350,2013-08-19 23:15:00
4:35 PM,68.0,-9999,N/A,30.09,10.0,North,19.6,27.6,N/A,,Clear,360,2013-08-19 23:35:00
4:55 PM,69.8,-9999,N/A,30.09,10.0,North,21.9,31.1,N/A,,Clear,350,2013-08-19 23:55:00
5:15 PM,66.2,-9999,N/A,30.08,10.0,North,23.0,34.5,N/A,,Clear,350,2013-08-20 00:15:00
5:35 PM,66.2,-9999,N/A,30.08,10.0,North,21.9,31.1,N/A,,Partly Cloudy,360,2013-08-20 00:35:00
5:55 PM,64.4,-9999,N/A,30.07,10.0,North,23.0,29.9,N/A,,Mostly Cloudy,360,2013-08-20 00:55:00
6:15 PM,64.4,-9999,N/A,30.07,10.0,North,24.2,31.1,N/A,,Scattered Clouds,360,2013-08-20 01:15:00
6:35 PM,64.4,-9999,N/A,30.07,10.0,North,19.6,27.6,N/A,,Partly Cloudy,360,2013-08-20 01:35:00
6:55 PM,64.4,-9999,N/A,30.07,10.0,North,24.2,34.5,N/A,,Partly Cloudy,360,2013-08-20 01:55:00
7:15 PM,64.4,-9999,N/A,30.06,10.0,North,20.7,29.9,N/A,,Partly Cloudy,360,2013-08-20 02:15:00
7:35 PM,62.6,-9999,N/A,30.07,10.0,North,21.9,32.2,N/A,,Mostly Cloudy,360,2013-08-20 02:35:00
7:55 PM,62.6,-9999,N/A,30.07,10.0,North,21.9,32.2,N/A,,Overcast,360,2013-08-20 02:55:00
8:15 PM,60.8,-9999,N/A,30.08,10.0,North,20.7,29.9,N/A,,Overcast,360,2013-08-20 03:15:00
8:35 PM,60.8,-9999,N/A,30.08,10.0,North,17.3,29.9,N/A,,Mostly Cloudy,360,2013-08-20 03:35:00
8:55 PM,60.8,-9999,N/A,30.08,10.0,North,20.7,27.6,N/A,,Mostly Cloudy,10,2013-08-20 03:55:00
9:15 PM,60.8,-9999,N/A,30.09,10.0,North,17.3,28.8,N/A,,Mostly Cloudy,360,2013-08-20 04:15:00
9:35 PM,60.8,-9999,N/A,30.09,10.0,North,19.6,27.6,N/A,,Mostly Cloudy,360,2013-08-20 04:35:00
9:55 PM,60.8,-9999,N/A,30.10,10.0,North,20.7,24.2,N/A,,Mostly Cloudy,360,2013-08-20 04:55:00
10:15 PM,60.8,-9999,N/A,30.10,10.0,North,19.6,32.2,N/A,,Mostly Cloudy,10,2013-08-20 05:15:00
10:35 PM,59.0,-9999,N/A,30.09,10.0,North,18.4,25.3,N/A,,Mostly Cloudy,360,2013-08-20 05:35:00
10:55 PM,59.0,-9999,N/A,30.09,10.0,North,20.7,26.5,N/A,,Partly Cloudy,10,2013-08-20 05:55:00
11:15 PM,59.0,-9999,N/A,30.09,10.0,North,19.6,27.6,N/A,,Clear,10,2013-08-20 06:15:00
11:35 PM,59.0,-9999,N/A,30.09,10.0,North,23.0,28.8,N/A,,Clear,10,2013-08-20 06:35:00
11:55 PM,59.0,-9999,N/A,30.09,10.0,North,21.9,28.8,N/A,,Clear,10,2013-08-20 06:55:00